STARLINK-3804, 52270

Orbit data source: Space-Track

STARLINK-3804, 52270 is a payload satellite owned by SpaceX/Seattle (US) in LEO that was launched on Thu, 21 Apr 2022 UTC via an FALCON 9 launch vehicle from the Air Force Eastern Test Range (AFETR). Payload-class satellites include a variety of spacecraft equipped with specific instruments for various scientific and technological missions. These include communications satellites like Starlink; space stations such as the ISS; scientific satellites like the Hubble; Earth observation satellites from companies like Planet Labs, Umbra, and HawkEye 360; GPS; miniature CubeSats for education and research; and military/defense satellites.

Loading next visibility...
Identifier
52270, 2022-041K
Orbit
LEO
Country
Flag of USUS
Related business
Manufacturer
SpaceX/Seattle
Mission
Operational Commercial Communications
Bus & Motor
STARLINK, Unknown motor
Mass
297 kg wet, ~275 kg dry
Launch date (UTC)
2022-04-21 (4 years ago)
Launch vehicle
FALCON 9
Launch site
Air Force Eastern Test Range (AFETR)
Object type
Payload
Rocket body
Debris
Shape & HBR
Box + 1 Pan, 10.1 m
Radar Cross Section
11.087 m², Large (>1 m²)

Expand to show TLE details & history
Last TLE update: 8 hours ago

TLE from 8 hours ago
0 STARLINK-3804
1 52270U 22041K   26249.56877289  .00000419  00000-0  23536-4 0  9997
2 52270  53.1620  12.8689 0000737  86.7085 273.4002 15.34390329241723
Epoch: 2026-09-06T13:39Z
TLE epoch observation values (Epoch: 2026-09-06T13:39:01.977Z)
Latitude
-0.00003°
Longitude
-177.55137°
Altitude
463.604 km
Speed
7.636 km/s
True Right ascension
00h 51m 28s
True Declination
0° 00' 00"
Sunlit
Object was in full shadow at epoch
Visualization orbit readout
Latitude
Unknown
Longitude
Unknown
Altitude
Unknown
Speed
Unknown
Apparent Right ascension
Unknown
Apparent Declination
Unknown
Sunlit
N/A
Visualization observer readout
Local Sidereal Time
13:48:39
Azimuth
Unknown
Elevation
Unknown
Doppler factor
Unknown
Orbital elements
Apogee altitude
463.493 km
Perigee altitude
462.484 km
Semi-major axis
6,841.126 km
Eccentricity
0.00007
Inclination
53.162°
RAAN
12.8689°
Arg. of periapsis
86.7085°
True anomaly
273.39177°
Mean anomaly
273.4002°
Eccentric anomaly
273.39598°
Mean motion
3.83576 °/min
Orbital period
93.85 mins
BSTAR
0.000023536
Loading maneuver chart data...
Computing Atmospheric mass density...

Documentation

Showing up to 5 results
|